Regional Weather Roundup
Issued by NWS

Home | Current Version | Previous Version | Text Only | Print | Product List | Glossary Off
Versions: 1 2 3 4 5 6 7 8 9 10 11 12 13 14 15 16 17 18 19 20 21 22 23 24 25 26 27 28 29 30 31 32 33 34 35 36 37 38 39 40 41 42 43 44 45 46 47 48 49 50

000
ASUS43 KDMX 241107
RWRIA

WEATHER ROUNDUP FOR IOWA
NATIONAL WEATHER SERVICE DES MOINES IA
600 AM CDT FRI APR 24 2015

NOTE: "FAIR" INDICATES FEW OR NO CLOUDS BELOW 12,000 FEET WITH NO
SIGNIFICANT WEATHER AND/OR OBSTRUCTIONS TO VISIBILITY.

* - THESE STATIONS ARE NOT NWS STATIONS...THUS NOT UNDER NWS
QUALITY CONTROL.  THEY ALSO DO NOT REPORT WEATHER SUCH
AS PRECIPITATION OR FOG.

IAZ001>003-012>014-020>022-031>034-043>046-241200-
   NORTHWEST IOWA

CITY           SKY/WX    TMP DP  RH WIND       PRES   REMARKS
CARROLL *      CLOUDY    48  37  66 SE15      29.84F
CHEROKEE *     LGT RAIN  48  39  71 SE12      29.82S
DENISON *      CLOUDY    54  36  50 SE12G17   29.80S
LE MARS *      CLOUDY    52  39  62 SE17      29.77F
ORANGE CITY *  CLOUDY    48  39  71 SE10G21   29.78S
SHELDON *      CLOUDY    50  39  66 SE21G28   29.77F
SIOUX CITY     CLOUDY    52  39  61 SE10      29.77F
SPENCER        LGT RAIN  47  41  80 SE14G22   29.83F
STORM LAKE *   CLOUDY    46  39  76 SE15      29.82F
$$

IAZ055>058-069>071-079>083-090>094-241200-
   SOUTHWEST IOWA

CITY           SKY/WX    TMP DP  RH WIND       PRES   REMARKS
ATLANTIC *     CLOUDY    54  36  50 SE12      29.83S
AUDUBON *      MOCLDY    54  36  50 SE7       29.85R
CLARINDA *     CLOUDY    55  37  50 S8G17     29.86F
COUNCIL BLFS * MOCLDY    54  37  54 S16G23    29.79F
CRESTON *      CLOUDY    52  36  54 SE13G20   29.86F
HARLAN  *      CLOUDY    54  37  54 S10       29.84F
LAMONI         CLOUDY    54  34  46 SE10      29.89F
RED OAK *      CLOUDY    55  37  50 SE12      29.82F
SHENANDOAH *   CLOUDY    55  37  50 SE13G24   29.81F
$$

IAZ047>049-059>061-072>074-084-241200-
   CENTRAL IOWA

CITY           SKY/WX    TMP DP  RH WIND       PRES   REMARKS
AMES           CLOUDY    48  30  49 SE13G21   29.90F
ANKENY *       CLOUDY    50  30  46 SE14      29.90F
CHARITON *     CLOUDY    50  34  53 SE15      29.90F
DES MOINES     CLOUDY    53  27  36 SE14G22   29.90F
GRINNELL*      CLOUDY    46  27  46 E8        29.98F
KNOXVILLE *    CLOUDY    50  28  43 SE12      29.92F
MARSHALLTOWN   CLOUDY    43  32  65 SE10      29.96F
PELLA *        CLOUDY    48  34  57 SE8       29.96F
PERRY *        CLOUDY    52  34  50 SE16G23   29.86F
$$

IAZ004>006-015-016-023>025-035-036-241200-
   NORTH CENTRAL IOWA

CITY           SKY/WX    TMP DP  RH WIND       PRES   REMARKS
ALGONA *       CLOUDY    46  37  71 SE17      29.87F
CLARION *      CLOUDY    43  39  87 E13G20    29.89F
ESTHERVILLE    CLOUDY    45  35  68 SE17      29.83F
FORT DODGE *   CLOUDY    46  34  61 SE16      29.87S
MASON CITY     CLOUDY    43  23  45 SE12      29.93F
FOREST CITY *  CLOUDY    43  25  49 SE12      29.90F
IOWA FALLS *   DRIZZLE   41  36  81 SE14      29.93F
$$

IAZ007>011-017>019-026>030-037>042-050>054-066-241200-
   NORTHEAST IOWA

CITY           SKY/WX    TMP DP  RH WIND       PRES   REMARKS
CEDAR RAPIDS   CLOUDY    43  26  51 SE6       30.01R
CHARLES CITY * CLOUDY    43  19  39 SE13      29.96F
CLINTON *      CLOUDY    34  27  75 E7        30.06F WCI  28
DECORAH *      PTCLDY    39  18  41 S8        29.98F WCI  34
DUBUQUE        PTCLDY    39  19  44 SE9       30.02F WCI  33
MONTICELLO *   CLOUDY    36  27  69 E6        30.01F WCI  31
OELWEIN *      CLOUDY    43  21  42 SE10      29.99F
WATERLOO       LGT RAIN  45  22  40 S12       29.99S
$$

IAZ064-065-067-068-078-241200-
   EAST CENTRAL IOWA

CITY           SKY/WX    TMP DP  RH WIND       PRES   REMARKS
DAVENPORT      CLOUDY    42  22  44 E7        30.03F
IOWA CITY      CLOUDY    44  26  49 SE5       30.04R
MT. PLEASANT * CLOUDY    48  21  34 SE10      30.01S
MUSCATINE *    CLOUDY    45  28  53 S3        30.03S
QUAD CITIES    MOCLDY    37  30  75 CALM      30.04F
$$

IAZ062-063-075>077-085>089-095>099-241200-
   SOUTHEAST IOWA

CITY           SKY/WX    TMP DP  RH WIND       PRES   REMARKS
BURLINGTON     CLOUDY    49  21  33 SE6       30.03R
FAIRFIELD *    CLOUDY    50  23  34 SE9       29.99F
FORT MADISON * CLOUDY    50  19  29 SE10      30.03S
KEOKUK *       CLOUDY    50  27  40 SE10      30.01R
OSKALOOSA *    CLOUDY    48  27  43 SE10      29.97F
CENTERVILLE *  MOCLDY    48  34  57 E12       29.95F
OTTUMWA        CLOUDY    50  25  37 SE13      29.96F
WASHINGTON *   CLOUDY    48  23  37 SE12      30.01R
$$

ABBREVIATIONS USED IN REMARKS
   TC - TEMPERATURES IN CELSIUS
  WCI - WIND CHILL INDEX
   HX - HEAT INDEX
  VSB - VISIBILITY
$$



USA.gov is the U.S. government's official web portal to all federal, state and local government web resources and services.